Погода в Мариуполе

Погода в Мариуполе : погода сейчас, прогноз погоды и архив. Всё, что Вы хотите узнать о погоде в Мариуполе!

Поиск расширенной информации на нашем сайте:

Другие новости

Новости СМИ2

Главная страница сайта

Новости сайта

02.10.2013

Напоминаем, что на нашем новом сайте вы можете получить высокодетализированные прогнозы погоды по пунктам России, СНГ и мира (включающие важные для авиации метеовеличины, такие как направление и скорость ветра, видимость, явления погоды, количество и форма облачности, нижняя и верхняя граница облачности), а также ознакомиться с разнообразными материалами по авиационной метеорологии и подборкой полезных ссылок на эту тему.

Сайт Метеоцентр.Азия посвящён разработке технологий оптимизации авиаметеорологического обслуживания, включая проектирование и перспективное создание нескольких автоматизированных авиаметеорологических систем:
- система выпуска высокодетальных прогностических карт явлений погоды для нижнего воздушного пространства по России и ближнему зарубежью;
- система верификации прогнозов TAF (выпускаемых синоптиками официальных АМСГ РФ и ближнего зарубежья) и AUTOTAF (выпускаемых сайтом Метеоцентр.Азия) - выявление ошибок, онлайн-сопоставление с фактической погодой METAR, автоматическое внесение коррективов в прогнозы при резком отклонении фактической погоды от прогноза, подсчёт оправдываемости прогнозов по элементам и в целом;
- система обработки, анализа и отображения авиаметеорологической информации для применения провайдерами метеорологической информации.

Рекомендуем: Деревянные окна

Погода в Мариуполе - сегодня

Время (UTC), дата Ветер
(°,м/с) 
Видим.   Явления Облачность Т
(°С)
Тd
(°С)
f(%) Тe
(°С)
Pmin
(гПа)
dP
(гПа)
Po
(мм)
O2
(г/м3)
Тmin Tmax R s Состояние
почвы
15 16.01.17 340 (С) 4000 м  дымка  10/10 630 м 
[Sc]
+1.2 +0.4 94 -1  1022.3  0.9  760  305           
18 16.01.17 340 (С) 4000 м  дымка  10/10 420 м 
[St]
+1.1 -1.2 85 1023.1  0.8  761  305    +1.7       
21 16.01.17 020 (С) 4000 м  дымка  10/10 480 м 
[St]
+1.2 -1.4 83 +1  1024  0.9  761  306           
00 17.01.17 360 (С) 4000 м  дымка  10/10 540 м 
[St]
+0.6 -2.2 81 -1  1024.9  0.9  762  307           
03 17.01.17 360 (С) 10 км    10/6 800 м средняя 
[Sc|Ac trans]
+0.4 -2.9 78 -1  1025.1  0.2  762  307           
06 17.01.17 020 (С) 4000 м  дымка  10/0 средняя 
[Ac und]
-0.3 -2.4 86 -3  1026.7  1.5  763  308  -0.5      мокрый или
старый снег
50-90% 
09 17.01.17 050 (СВ) 10 км    10/10 420 м 
[St]
+0.8 -2.2 80 -2  1027.1  0.5  764  307           
12 17.01.17 050 (СВ) 10 км    10/10 500 м 
[Sc]
+1 -2.6 77 -2  1026.9  -0.2  764  307           
15 17.01.17 050 (СВ) 10 км    10/10 600 м 
[Sc]
+1.1 -2.8 75 -2  1027.8  0.9  764  307           
18 17.01.17 050 (СВ) 10 км    10/10 700 м 
[Sc]
+1.1 -2.8 75 -2  1028.5  0.7  765  307    +1.2       
21 17.01.17 050 (СВ) 10 км    10/10 660 м 
[Sc]
+0.6 -3.1 76 -3  1028.7  0.1  765  308           
00 18.01.17 040 (СВ) 20000 м    10/10 630 м 
[Sc]
+0 -3.4 78 -3  1029.2  0.5  765  309           
03 18.01.17 080 (В) 20000 м    10/10 630 м 
[Sc]
-1 -4.2 79 -5  1029.2  765  310           
06 18.01.17 050 (СВ) 10 км  слаб. снег  10/9 300 м средняя 
[Frnb|As op]
-1.3 -3.6 84 -5  1030.4  1.2  766  311  -1.5    0.0  равномерный
сухой снег
100% 
09 18.01.17 050 (СВ) 10 км  слаб. снег  10/9 300 м средняя 
[Frnb|As op]
-2.2 -4.4 85 -7  1031.5  767  312           
12 18.01.17 050 (СВ) 10 км  {снег}  10/10 450 м 
[Sc]
-2 -5.9 75 -6  1031.5  767  312      0.0     
18 18.01.17 070 (В) 20000 м  {снег}  10/10 720 м 
[Sc]
-2.5 -7.7 67 -7  1033.8  0.9  769  313    -1.3  0.0     
21 18.01.17 070 (В) 20000 м    8/8 600 м 
[Sc]
-3.4 -9 65 -8  1034.3  0.5  769  315           
00 19.01.17 070 (В) 20000 м    10/10 800 м 
[Sc]
-3.2 -8.7 66 -8  1034.4  0.1  769  314           
03 19.01.17 070 (В) 20000 м    10/10 800 м 
[Sc]
-3.9 -10.1 62 -9  1034.9  0.4  769  316           
06 19.01.17 070 (В) 10 км    10/6 720 м средняя 
[Sc|Ac trans]
-4.7 -10.4 64 -9  1035.9  770  317  -5.1      мокрый или
старый снег
10-40% 
09 19.01.17 070 (В) 10 км    10/10 660 м 
[Sc]
-4.5 -9.7 67 -8  1036.2  0.3  770  317           
12 19.01.17 070 (В) 20000 м    8/8 750 м 
[Sc]
-3.8 -10 62 -7  1035.6  -0.6  770  316           
15 19.01.17 070 (В) 20000 м    10/10 700 м 
[Sc]
-4.8 -10.1 66 -8  1035.6  770  317           
18 19.01.17 050 (СВ) 10 км    10/10 800 м 
[Sc]
-6.1 -10.5 71 -9  1035.8  0.1  770  318    -3.7       
Время (UTC), дата Ветер
(°,м/с) 
Видим.   Явления Облачность Т
(°С)
Тd
(°С)
f(%) Тe
(°С)
Pmin
(гПа)
dP
(гПа)
Po
(мм)
O2
(г/м3)
Тmin Tmax R s Состояние
почвы

Для получения пояснительной информации подведите курсор к названию столбца.

ПОГОДА в Мариуполе - архив

Всё, что Вы хотите узнать о погоде в Мариуполе - удобно и подробно!

Выберите нужную дату (начиная с 1 января 2015* года) и нажмите кнопку "Найти".
Будут отображены архивные сводки погоды по пункту Мариуполь, начиная с указанной даты.


Отображать данные в формате CSV (для использования в таблицах Excel)


Внимание! Наш архив погоды предназначен исключительно для личного некоммерческого использования в познавательных целях. Если Вам необходимы официальные справки о состоянии погоды (для производственных, юридических, коммерческих и т.п. целей), обращайтесь в органы Росгидромета.

*Примечание: данная дата относится к архиву по метеостанциям СССР (Россия, СНГ, Балтия).
Архив по метеостанциям Зарубежной Европы и Азии (кроме Китая) хранится 10 дней, по другим регионам земного шара (Китай, Африка, Америка, Австралия, Океания) - 1 день.

Мариуполь - район местоположения метеостанции


Название, широта, долгота, высота метеостанции:
Мариуполь (город) 47°ш. 37.5°д. 70 м над ур. моря [Украина]

Дополнительная информация

В oтличие oт бoльшинства пoгoдных сайтoв мы публикуем пoдрoбную метеoинфoрмацию в детальнoм прoфессиoнальнoм фoрмате.

Характеристики температуры и влажнoсти вoздуха измеряются на высoте 2 м в тени вдали oт зданий и деревьев.
Скoрoсть ветра измеряется на высoте 10 м (на урoвне рoста челoвека скoрoсть ветра ниже в 1.5-2 раза). Если метеoстанция нахoдится в гoрoде или в лесу, тo скoрoсть ветра занижена на 2-4 м/с пo сравнению с oткрытым местoм. Скoрoсть ветра над акватoриями крупных рек и oзёр, а также на вершинах хoлмoв на 2-5 м/с выше, чем в oбычных услoвиях.
Атмoсфернoе давление в разных тoчках местнoсти мoжет значительнo oтличаться oт давления на метеoстанции, в зависимoсти oт услoвий рельефа (при пoдъёме на 10 м давление пoнижается примернo на 1 мм рт.ст.).